Weather in Klyuchevka

Russia / Orenburg Oblast     51°21′59″N   55°48′02″E
temp.,
°C
wind,
m/s
gust,
m/s
humid.,
%
clouds,
%
prec.,
mm/h
press.,
hPa
HPBL,
m
28 february, sun
sun2823:000ssw5998100 0.1 1003405
02:000sw61097100 0.3 1001544
05:000wsw61098100 0.8 1000497
08:00−1wsw5997100 0.9 1000524
11:00−1sw71096100 1.8 1000638
14:00−1w4695100 0.8 1002470
17:00−9w71093100 1.4 1005363
20:00−13wsw61094100 0.1 1008301
1 march, mon
mon123:00−15wsw589597 0.1 1011230
02:00−15wsw5895100 0.2 1013223
05:00−16wsw5795100 0.3 1015197
08:00−16wsw479695 0.1 1016178
11:00−16wsw569593 0.3 1018227
14:00−14wsw469491 0.1 1019302
17:00−13wsw479395 0.2 1020404
20:00−14wsw489692 0.1 1021204
2 march, tue
tue223:00−16w469891 0.2 102296
02:00−20w459974 0.0 102266
05:00−23wsw469949 0.0 102383
08:00−24wsw459913 0.0 102374
11:00−20sw699834 0.0 1022219
14:00−16ssw7119493 0.0 1019335
17:00−13ssw9149297 0.0 1017421
20:00−9sw91693100 0.2 1014633
3 march, wed
wed323:00−5sw91694100 0.8 1011790
02:00−4sw91595100 0.8 1008754
05:00−3sw91595100 1.9 1007739
08:00−3sw81396100 1.1 1005649
11:00−2sw81295100 1.9 1006688
14:00−1sw71095100 0.4 1005689
17:00−1sw5896100 0.8 1004543
20:00−2wsw3598100 0.5 1004133
4 march, thu
thu423:00−3w3497100 1.1 1005127
02:00−7nnw4995100 0.4 1005236
05:00−9nw4996100 0.4 1007186
08:00−12nw599538 0.0 1010147
11:00−10wnw5109221 0.0 1012286
14:00−7w589227 0.0 1013374
17:00−7wsw6109253 0.0 1014410
20:00−9sw7149456 0.0 1014336